Location: Caltech
(34.1382°N, 118.1253°W)
Time: 23:25:40
(UTC-07:00)

FO-29 - Visible Passes

Search period start: 18 June 2018 00:00
Search period end: 28 June 2018 00:00
Orbit: 799 x 1322 km, 98.5° (Epoch: 18 June)

Date Brightness Start Highest point End Pass type
(mag) Time Alt. Az. Time Alt. Az. Time Alt. Az.
18 Jun 12.2 21:16:44 10° NNW 21:19:57 16° WNW 21:23:18 10° WSW visible
20 Jun 12.1 21:11:23 10° NNW 21:14:56 18° WNW 21:18:40 10° WSW visible
22 Jun 12.1 21:06:03 10° NNW 21:09:55 20° WNW 21:14:02 10° WSW visible
24 Jun 12.0 21:00:46 10° NNW 21:04:55 23° WNW 21:09:22 10° WSW visible
26 Jun 11.8 20:55:30 10° NNW 20:59:54 25° WNW 21:04:41 10° WSW visible
